User: anonymous
Location: Caltech
(34.1382°N, 118.1253°W)
Time: 20:06:55
(UTC-07:00)
Language:

Oscar 10/S400 - Orbit

View from above orbital plane
View from above orbital plane
View from above satellite
View from above satellite

Ground track
Ground track

The orbit data is extracted from the following two-line orbital elements,

1 14129U 83058B   14239.44316977 -.00000049  00000-0  10000-3 0  2026
2 14129 026.1788 203.4427 6017861 024.7883 354.8414 02.05867701206704
Epoch (UTC): 27 August 2014 10:38:09
Eccentricity: 0.6017861
inclination: 26.1788°
perigee height: 4016 km
apogee height: 35431 km
right ascension of ascending node: 203.4427°
argument of perigee: 24.7883°
revolutions per day: 2.05867701
mean anomaly at epoch: 354.8414°
orbit number at epoch: 20670

The dashed part of the orbit path shows where the satellite is in the earth's shadow,  

DLR